FW5686 Weather Reports


time (UTC)temp
C
wind
direction
speed
KPH
gust
KPH
rain 1hr
cm
rain 24hr
cm
rain mn
cm
humidity
%
barometer
mb
20260509023036 12 207 4.8 19.3 0.38 0.74 0.74 92 1011.5
20260509021530 12 205 6.4 16.1 0.38 0.66 0.66 92 1011.6
20260509020032 12 194 8.0 17.7 0.36 0.53 0.53 92 1011.4
20260509014530 12 186 8.0 14.5 0.28 0.43 0.43 91 1011.1
20260509013031 12 215 3.2 14.5 0.23 0.36 0.36 91 1011.0
20260509011530 12 269 3.2 11.3 0.20 0.28 0.28 90 1011.1
20260509010031 12 210 0.0 6.4 0.13 0.18 0.18 89 1010.7
20260509004537 12 210 3.2 8.0 0.13 0.15 0.15 89 1010.6
20260509003029 12 232 6.4 12.9 0.13 0.13 0.13 88 1010.8
20260509001530 12 243 4.8 11.3 0.08 0.08 0.08 86 1010.9
20260509000038 12 251 3.2 11.3 0.05 0.05 0.05 85 1010.8
20260508234536 13 234 4.8 16.1 0.03 0.03 0.03 82 1010.9
20260508233030 13 276 3.2 17.7 0.00 0.00 0.00 81 1010.8
20260508231528 14 271 6.4 17.7 0.00 0.00 0.00 76 1010.9
20260508230027 15 250 3.2 19.3 0.00 0.00 0.00 74 1010.6
20260508224530 15 240 4.8 16.1 0.00 0.00 0.00 73 1010.7
20260508223034 15 218 8.0 17.7 0.00 0.00 0.00 70 1010.4
20260508221531 16 219 6.4 16.1 0.00 0.00 0.00 65 1010.3
20260508220030 16 202 4.8 9.7 0.00 0.00 0.00 64 1009.9
20260508214530 16 207 4.8 14.5 0.00 0.00 0.00 62 1009.9
20260508213029 16 194 6.4 17.7 0.00 0.00 0.00 60 1010.2
20260508211527 17 205 4.8 12.9 0.00 0.00 0.00 62 1010.3
20260508210028 17 198 6.4 14.5 0.00 0.00 0.00 62 1010.5
20260508204533 17 175 4.8 11.3 0.00 0.00 0.00 61 1010.5
20260508203031 16 184 6.4 12.9 0.00 0.00 0.00 63 1010.9
20260508201530 16 198 8.0 22.5 0.00 0.00 0.00 62 1011.1
20260508200031 17 171 9.7 17.7 0.00 0.00 0.00 61 1011.3
20260508194555 16 198 11.3 27.4 0.00 0.00 0.00 61 1011.5
20260508193028 16 177 11.3 24.1 0.00 0.00 0.00 62 1011.6
20260508191528 16 175 9.7 19.3 0.00 0.00 0.00 62 1011.9
20260508190029 16 232 9.7 20.9 0.00 0.00 0.00 65 1012.1
20260508184533 16 192 17.7 35.4 0.00 0.00 0.00 61 1012.1
20260508183028 16 187 16.1 30.6 0.00 0.00 0.00 59 1012.2
20260508181547 17 213 14.5 25.7 0.00 0.00 0.00 61 1012.1
20260508180031 17 214 14.5 27.4 0.00 0.00 0.00 63 1012.2
20260508174527 17 203 14.5 27.4 0.00 0.00 0.00 65 1012.6
20260508173037 16 188 14.5 24.1 0.00 0.00 0.00 63 1013.0
20260508171533 16 179 19.3 33.8 0.00 0.00 0.00 62 1013.4
20260508170030 16 200 12.9 29.0 0.00 0.00 0.00 65 1013.4
20260508164532 16 187 9.7 22.5 0.00 0.00 0.00 64 1013.7
20260508163030 16 266 12.9 24.1 0.00 0.00 0.00 64 1014.0
20260508161531 16 245 19.3 33.8 0.00 0.00 0.00 61 1014.1
20260508160032 17 209 16.1 33.8 0.00 0.00 0.00 62 1014.0
20260508154532 17 196 16.1 29.0 0.00 0.00 0.00 60 1014.3
20260508153041 16 254 19.3 30.6 0.00 0.00 0.00 61 1014.2
20260508151532 16 219 19.3 30.6 0.00 0.00 0.00 62 1014.1
20260508150029 16 184 9.7 35.4 0.00 0.00 0.00 63 1014.3
20260508144530 15 257 9.7 25.7 0.00 0.00 0.00 66 1014.5
20260508143030 15 209 14.5 32.2 0.00 0.00 0.00 63 1014.4
20260508141530 14 238 8.0 24.1 0.00 0.00 0.00 64 1014.6
20260508140029 13 209 14.5 29.0 0.00 0.00 0.00 66 1014.7
20260508134531 13 191 12.9 27.4 0.00 0.00 0.00 65 1014.6
20260508133034 13 261 9.7 24.1 0.00 0.00 0.00 65 1014.7
20260508131530 12 241 8.0 20.9 0.00 0.00 0.00 69 1014.9
20260508130029 12 272 6.4 20.9 0.00 0.00 0.00 68 1015.0
20260508124530 11 205 9.7 16.1 0.00 0.00 0.00 68 1014.8
20260508123030 11 185 9.7 16.1 0.00 0.00 0.00 70 1014.7
20260508121527 10 196 8.0 17.7 0.00 0.00 0.00 70 1014.6
20260508120029 10 188 11.3 22.5 0.00 0.00 0.00 71 1014.5
20260508114528 9 180 11.3 19.3 0.00 0.00 0.00 72 1014.5
20260508113031 8 178 8.0 16.1 0.00 0.00 0.00 76 1014.2
20260508111529 7 173 6.4 11.3 0.00 0.00 0.00 78 1014.3
20260508110027 7 178 6.4 11.3 0.00 0.00 0.00 78 1014.4
20260508104528 7 192 6.4 11.3 0.00 0.00 0.00 78 1014.2
20260508103029 7 176 6.4 11.3 0.00 0.00 0.00 76 1014.2
20260508101530 8 180 4.8 9.7 0.00 0.00 0.00 74 1014.2
20260508100027 8 186 6.4 12.9 0.00 0.00 0.00 72 1014.2
20260508094527 8 196 4.8 14.5 0.00 0.00 0.00 73 1014.1
20260508093026 8 188 6.4 11.3 0.00 0.00 0.00 72 1014.3
20260508091529 8 190 6.4 12.9 0.00 0.00 0.00 72 1014.3
20260508090032 8 184 4.8 12.9 0.00 0.00 0.00 72 1014.3
20260508084530 8 198 6.4 12.9 0.00 0.00 0.00 72 1014.4
20260508083029 8 219 6.4 14.5 0.00 0.00 0.00 71 1014.3
20260508081533 9 208 8.0 14.5 0.00 0.00 0.00 72 1014.3
20260508080031 9 192 8.0 16.1 0.00 0.00 0.00 72 1014.1
20260508074530 8 207 6.4 14.5 0.00 0.00 0.00 75 1014.4
20260508073028 9 219 9.7 16.1 0.00 0.00 0.00 72 1014.4
20260508071533 8 216 4.8 9.7 0.00 0.00 0.00 73 1014.6
20260508070032 8 185 4.8 11.3 0.00 0.00 0.00 70 1014.4
20260508064528 8 190 4.8 11.3 0.00 0.00 0.00 71 1014.7
20260508063028 8 194 4.8 11.3 0.00 0.00 0.00 71 1014.8
20260508061530 8 188 3.2 8.0 0.00 0.00 0.00 71 1014.9
20260508060030 8 188 3.2 8.0 0.00 0.00 0.00 71 1014.7
20260508054540 8 217 3.2 8.0 0.00 0.00 0.00 71 1015.1
20260508053032 8 180 3.2 8.0 0.00 0.00 0.00 70 1015.1
20260508051531 8 190 3.2 9.7 0.00 0.00 0.00 71 1015.1
20260508050029 8 201 4.8 9.7 0.00 0.00 0.00 71 1015.0
20260508044530 8 179 4.8 9.7 0.00 0.00 0.00 71 1015.0
20260508043029 8 177 4.8 9.7 0.00 0.00 0.00 70 1015.1
20260508041531 8 188 3.2 9.7 0.00 0.00 0.00 69 1015.0
20260508040031 8 196 1.6 6.4 0.00 0.00 0.00 69 1014.9
20260508034538 9 190 1.6 6.4 0.00 0.00 0.00 68 1014.9
20260508033030 10 188 4.8 12.9 0.00 0.00 0.00 67 1014.9
20260508031528 9 190 4.8 11.3 0.00 0.00 0.00 68 1014.8
20260508030030 10 178 4.8 8.0 0.00 0.00 0.00 66 1014.9
20260508024534 9 182 1.6 4.8 0.00 0.00 0.00 68 1014.9